Time,TemperatureF,DewpointF,PressureIn,WindDirection,WindDirectionDegrees,WindSpeedMPH,WindSpeedGustMPH,Humidity,HourlyPrecipIn,Conditions,Clouds,dailyrainin,SoftwareType,DateUTC
2013-07-12 00:01:00,69.0,59.0,-100.00,ESE,120,2.0,6.0,70,-99.99,,,-99.99,,2013-07-12 06:01:00,
2013-07-12 00:11:00,69.0,59.0,-100.00,ESE,120,2.0,6.0,70,-99.99,,,-99.99,,2013-07-12 06:11:00,
2013-07-12 00:42:00,67.0,58.0,-100.00,SE,130,7.0,9.0,72,-99.99,,,-99.99,,2013-07-12 06:42:00,
2013-07-12 00:52:00,67.0,58.0,-100.00,WNW,290,6.0,11.0,72,-99.99,,,-99.99,,2013-07-12 06:52:00,
2013-07-12 01:02:00,69.0,56.0,-100.00,WSW,250,4.0,13.0,64,-99.99,,,-99.99,,2013-07-12 07:02:00,
2013-07-12 01:12:00,69.0,56.0,-100.00,WSW,250,4.0,13.0,64,-99.99,,,-99.99,,2013-07-12 07:12:00,
2013-07-12 01:32:00,69.0,57.0,-100.00,NW,320,7.0,9.0,64,-99.99,,,-99.99,,2013-07-12 07:32:00,
2013-07-12 01:43:00,69.0,57.0,-100.00,NW,320,7.0,9.0,64,-99.99,,,-99.99,,2013-07-12 07:43:00,
2013-07-12 01:52:00,68.0,57.0,-100.00,NNW,345,6.0,9.0,69,-99.99,,,-99.99,,2013-07-12 07:52:00,
2013-07-12 02:01:00,67.0,57.0,-100.00,North,355,7.0,8.0,71,-99.99,,,-99.99,,2013-07-12 08:01:00,
2013-07-12 02:11:00,67.0,57.0,-100.00,North,355,7.0,8.0,71,-99.99,,,-99.99,,2013-07-12 08:11:00,
2013-07-12 02:42:00,67.0,57.0,-100.00,North,0,7.0,9.0,69,-99.99,,,-99.99,,2013-07-12 08:42:00,
2013-07-12 02:53:00,68.0,56.0,-100.00,North,0,7.0,7.0,65,-99.99,,,-99.99,,2013-07-12 08:53:00,
2013-07-12 03:02:00,69.0,56.0,-100.00,North,0,7.0,8.0,64,-99.99,,,-99.99,,2013-07-12 09:02:00,
2013-07-12 03:12:00,69.0,56.0,-100.00,North,0,7.0,8.0,64,-99.99,,,-99.99,,2013-07-12 09:12:00,
2013-07-12 03:42:00,68.0,56.0,-100.00,NW,315,18.0,26.0,64,-99.99,,,-99.99,,2013-07-12 09:42:00,
2013-07-12 03:52:00,68.0,56.0,-100.00,NW,325,9.0,12.0,64,-99.99,,,-99.99,,2013-07-12 09:52:00,
2013-07-12 04:01:00,69.0,56.0,-100.00,NW,320,9.0,11.0,63,-99.99,,,-99.99,,2013-07-12 10:01:00,
2013-07-12 04:11:00,69.0,56.0,-100.00,NW,320,9.0,11.0,63,-99.99,,,-99.99,,2013-07-12 10:11:00,
2013-07-12 04:42:00,70.0,56.0,-100.00,NNW,330,10.0,13.0,60,-99.99,,,-99.99,,2013-07-12 10:42:00,
2013-07-12 04:52:00,70.0,55.0,-100.00,NNW,335,11.0,12.0,58,-99.99,,,-99.99,,2013-07-12 10:52:00,
2013-07-12 05:02:00,70.0,55.0,-100.00,NW,320,7.0,12.0,58,-99.99,,,-99.99,,2013-07-12 11:02:00,
2013-07-12 05:11:00,70.0,55.0,-100.00,NW,320,7.0,12.0,58,-99.99,,,-99.99,,2013-07-12 11:11:00,
2013-07-12 05:43:00,69.0,56.0,-100.00,WNW,300,10.0,11.0,64,-99.99,,,-99.99,,2013-07-12 11:43:00,
2013-07-12 05:53:00,69.0,56.0,-100.00,NW,305,9.0,9.0,63,-99.99,,,-99.99,,2013-07-12 11:53:00,
2013-07-12 06:01:00,69.0,56.0,-100.00,WNW,290,9.0,9.0,64,-99.99,,,-99.99,,2013-07-12 12:01:00,
2013-07-12 06:11:00,69.0,56.0,-100.00,WNW,290,9.0,9.0,64,-99.99,,,-99.99,,2013-07-12 12:11:00,
2013-07-12 06:43:00,68.0,57.0,-100.00,WNW,290,7.0,10.0,68,-99.99,,,-99.99,,2013-07-12 12:43:00,
2013-07-12 06:52:00,69.0,58.0,-100.00,WNW,295,9.0,11.0,66,-99.99,,,-99.99,,2013-07-12 12:52:00,
2013-07-12 07:01:00,69.0,58.0,-100.00,WNW,300,9.0,10.0,66,-99.99,,,-99.99,,2013-07-12 13:01:00,
2013-07-12 07:12:00,69.0,58.0,-100.00,WNW,300,9.0,10.0,66,-99.99,,,-99.99,,2013-07-12 13:12:00,
2013-07-12 07:43:00,70.0,59.0,-100.00,WNW,285,4.0,9.0,67,-99.99,,,-99.99,,2013-07-12 13:43:00,
2013-07-12 07:53:00,71.0,60.0,-100.00,WNW,285,4.0,6.0,67,-99.99,,,-99.99,,2013-07-12 13:53:00,
2013-07-12 08:02:00,71.0,60.0,-100.00,NW,320,6.0,7.0,68,-99.99,,,-99.99,,2013-07-12 14:02:00,
2013-07-12 08:11:00,71.0,60.0,-100.00,NW,320,6.0,7.0,68,-99.99,,,-99.99,,2013-07-12 14:11:00,
2013-07-12 08:43:00,73.0,60.0,-100.00,SW,225,1.0,3.0,63,-99.99,,,-99.99,,2013-07-12 14:43:00,
2013-07-12 08:53:00,73.0,60.0,-100.00,NE,35,1.0,2.0,64,-99.99,,,-99.99,,2013-07-12 14:53:00,
2013-07-12 09:01:00,73.0,60.0,-100.00,West,260,2.0,3.0,62,-99.99,,,-99.99,,2013-07-12 15:01:00,
2013-07-12 09:11:00,73.0,60.0,-100.00,West,260,2.0,3.0,62,-99.99,,,-99.99,,2013-07-12 15:11:00,
2013-07-12 09:43:00,75.0,59.0,-100.00,WSW,245,4.0,6.0,57,-99.99,,,-99.99,,2013-07-12 15:43:00,
2013-07-12 09:53:00,75.0,59.0,-100.00,WSW,255,6.0,7.0,56,-99.99,,,-99.99,,2013-07-12 15:53:00,
2013-07-12 10:01:00,77.0,59.0,-100.00,West,260,4.0,6.0,55,-99.99,,,-99.99,,2013-07-12 16:01:00,
2013-07-12 10:11:00,77.0,59.0,-100.00,West,260,4.0,6.0,55,-99.99,,,-99.99,,2013-07-12 16:11:00,
2013-07-12 10:42:00,77.0,57.0,-100.00,West,270,6.0,7.0,49,-99.99,,,-99.99,,2013-07-12 16:42:00,
2013-07-12 10:58:00,77.0,56.0,-100.00,West,265,8.0,11.0,48,-99.99,,,-99.99,,2013-07-12 16:58:00,
2013-07-12 11:05:00,77.0,56.0,-100.00,West,265,9.0,12.0,47,-99.99,,,-99.99,,2013-07-12 17:05:00,
2013-07-12 11:13:00,77.0,56.0,-100.00,West,265,9.0,12.0,47,-99.99,,,-99.99,,2013-07-12 17:13:00,
2013-07-12 12:05:00,80.0,56.0,-100.00,SW,235,11.0,14.0,43,-99.99,,,-99.99,,2013-07-12 18:05:00,
2013-07-12 12:14:00,80.0,56.0,-100.00,SW,235,11.0,14.0,43,-99.99,,,-99.99,,2013-07-12 18:14:00,
2013-07-12 12:46:00,80.0,55.0,-100.00,West,265,9.0,14.0,42,-99.99,,,-99.99,,2013-07-12 18:46:00,
2013-07-12 12:57:00,81.0,56.0,-100.00,WSW,245,7.0,12.0,41,-99.99,,,-99.99,,2013-07-12 18:57:00,
2013-07-12 13:04:00,81.0,55.0,-100.00,WSW,255,10.0,12.0,40,-99.99,,,-99.99,,2013-07-12 19:04:00,
2013-07-12 13:14:00,81.0,55.0,-100.00,WSW,255,10.0,12.0,40,-99.99,,,-99.99,,2013-07-12 19:14:00,
2013-07-12 15:14:00,80.0,54.0,-100.00,NW,305,7.0,11.0,41,-99.99,,,-99.99,,2013-07-12 21:14:00,
2013-07-12 15:45:00,81.0,55.0,-100.00,WNW,285,9.0,11.0,39,-99.99,,,-99.99,,2013-07-12 21:45:00,
2013-07-12 15:58:00,82.0,54.0,-100.00,NW,315,9.0,12.0,38,-99.99,,,-99.99,,2013-07-12 21:58:00,
2013-07-12 20:45:00,74.0,50.0,-100.00,South,180,0.0,2.0,42,-99.99,,,-99.99,,2013-07-13 02:45:00,
2013-07-12 20:55:00,74.0,51.0,-100.00,ESE,115,0.0,0.0,44,-99.99,,,-99.99,,2013-07-13 02:55:00,
2013-07-12 21:04:00,72.0,51.0,-100.00,ESE,105,1.0,1.0,47,-99.99,,,-99.99,,2013-07-13 03:04:00,
2013-07-12 21:12:00,72.0,51.0,-100.00,ESE,105,1.0,1.0,47,-99.99,,,-99.99,,2013-07-13 03:12:00,
2013-07-12 21:44:00,69.0,51.0,-100.00,ESE,115,0.0,0.0,53,-99.99,,,-99.99,,2013-07-13 03:44:00,
2013-07-12 21:57:00,67.0,51.0,-100.00,South,170,0.0,1.0,57,-99.99,,,-99.99,,2013-07-13 03:57:00,
2013-07-12 22:11:00,67.0,49.0,-100.00,South,190,0.0,1.0,52,-99.99,,,-99.99,,2013-07-13 04:11:00,
2013-07-12 22:32:00,66.0,49.0,-100.00,SSE,165,1.0,1.0,54,-99.99,,,-99.99,,2013-07-13 04:32:00,
2013-07-12 22:43:00,66.0,49.0,-100.00,SSE,165,1.0,1.0,54,-99.99,,,-99.99,,2013-07-13 04:43:00,
2013-07-12 22:52:00,63.0,49.0,-100.00,SSE,165,2.0,3.0,60,-99.99,,,-99.99,,2013-07-13 04:52:00,
2013-07-12 23:01:00,64.0,50.0,-100.00,SSE,150,0.0,3.0,60,-99.99,,,-99.99,,2013-07-13 05:01:00,
2013-07-12 23:11:00,64.0,50.0,-100.00,SSE,150,0.0,3.0,60,-99.99,,,-99.99,,2013-07-13 05:11:00,
2013-07-12 23:32:00,62.0,50.0,-100.00,ESE,120,0.0,1.0,64,-99.99,,,-99.99,,2013-07-13 05:32:00,
2013-07-12 23:42:00,62.0,50.0,-100.00,ESE,120,0.0,1.0,64,-99.99,,,-99.99,,2013-07-13 05:42:00,
2013-07-12 23:52:00,63.0,49.0,-100.00,SE,130,2.0,2.0,60,-99.99,,,-99.99,,2013-07-13 05:52:00,